Location: Adavinekkalam
(16.6301°N, 80.7229°E)
Time: 15:18:00
(UTC+00:00)

ADEOS II - Pass Details

Date: 15 May 2026
Orbit: 792 x 796 km, 98.8° (Epoch: 10 June)

Event Time Altitude Azimuth Distance (km) Brightness Sun altitude
Rises 21:26:46 0° 11° (NNE) 3,284 5.9 -34.5°
Reaches altitude 10° 21:29:05 10° 11° (NNE) 2,353 5.0 -34.0°
Enters shadow 21:31:59 35° 10° (N) 1,268 3.4 -33.5°
